| time (UTC) | temp F | wind direction | speed MPH | gust MPH | rain 1hr in | rain 24hr in | rain mn in | humidity % | barometer mb |
| 20260504050618 | 65 | 150 | 5.0 | 10.0 | 0.00 | 0.01 | 0.00 | 66 | 1017.4 |
| 20260504050122 | 65 | 163 | 5.0 | 10.0 | 0.00 | 0.01 | 0.01 | 66 | 1017.5 |
| 20260504045633 | 65 | 130 | 4.0 | 8.0 | 0.00 | 0.01 | 0.01 | 65 | 1017.5 |
| 20260504045205 | 65 | 146 | 4.0 | 9.0 | 0.00 | 0.01 | 0.01 | 65 | 1017.5 |
| 20260504044633 | 65 | 119 | 5.0 | 9.0 | 0.00 | 0.01 | 0.01 | 65 | 1017.5 |
| 20260504044205 | 64 | 142 | 4.0 | 6.0 | 0.00 | 0.01 | 0.01 | 65 | 1017.5 |
| 20260504043631 | 64 | 169 | 4.0 | 7.0 | 0.00 | 0.01 | 0.01 | 65 | 1017.5 |
| 20260504043201 | 64 | 138 | 3.0 | 7.0 | 0.00 | 0.01 | 0.01 | 65 | 1017.6 |
| 20260504042728 | 64 | 150 | 4.0 | 6.0 | 0.00 | 0.01 | 0.01 | 64 | 1017.5 |
| 20260504042132 | 64 | 148 | 3.0 | 7.0 | 0.00 | 0.01 | 0.01 | 65 | 1017.5 |
| 20260504041645 | 64 | 175 | 4.0 | 7.0 | 0.00 | 0.01 | 0.01 | 65 | 1017.5 |
| 20260504041206 | 64 | 144 | 4.0 | 5.0 | 0.00 | 0.01 | 0.01 | 65 | 1017.5 |
| 20260504040631 | 63 | 144 | 3.0 | 5.0 | 0.00 | 0.01 | 0.01 | 65 | 1017.6 |
| 20260504040144 | 63 | 145 | 3.0 | 5.0 | 0.00 | 0.01 | 0.01 | 65 | 1017.7 |
| 20260504035614 | 63 | 144 | 2.0 | 5.0 | 0.00 | 0.01 | 0.01 | 66 | 1017.8 |
| 20260504035137 | 62 | 138 | 3.0 | 6.0 | 0.00 | 0.01 | 0.01 | 66 | 1017.6 |
| 20260504034711 | 62 | 159 | 4.0 | 7.0 | 0.00 | 0.01 | 0.01 | 67 | 1017.6 |
| 20260504034135 | 62 | 136 | 3.0 | 7.0 | 0.00 | 0.01 | 0.01 | 67 | 1017.6 |
| 20260504033709 | 62 | 148 | 3.0 | 5.0 | 0.00 | 0.01 | 0.01 | 68 | 1017.6 |
| 20260504033133 | 62 | 132 | 2.0 | 5.0 | 0.00 | 0.01 | 0.01 | 69 | 1017.6 |
| 20260504032706 | 62 | 126 | 3.0 | 5.0 | 0.00 | 0.01 | 0.01 | 69 | 1017.5 |
| 20260504032130 | 62 | 142 | 0.0 | 0.0 | 0.00 | 0.01 | 0.01 | 66 | 1017.6 |
| 20260504031704 | 63 | 142 | 0.0 | 1.0 | 0.00 | 0.01 | 0.01 | 65 | 1017.4 |
| 20260504031225 | 63 | 142 | 0.0 | 1.0 | 0.00 | 0.01 | 0.01 | 64 | 1017.4 |
| 20260504030641 | 63 | 142 | 1.0 | 1.0 | 0.00 | 0.01 | 0.01 | 63 | 1017.4 |
| 20260504030143 | 64 | 142 | 0.0 | 0.0 | 0.00 | 0.01 | 0.01 | 61 | 1017.4 |
| 20260504025710 | 64 | 142 | 0.0 | 0.0 | 0.00 | 0.01 | 0.01 | 60 | 1017.4 |
| 20260504025143 | 64 | 142 | 0.0 | 0.0 | 0.00 | 0.01 | 0.01 | 60 | 1017.3 |
| 20260504024710 | 65 | 142 | 0.0 | 0.0 | 0.00 | 0.01 | 0.01 | 59 | 1017.3 |
| 20260504024122 | 65 | 142 | 0.0 | 0.0 | 0.00 | 0.01 | 0.01 | 59 | 1017.3 |
| 20260504023647 | 65 | 142 | 0.0 | 0.0 | 0.00 | 0.01 | 0.01 | 58 | 1017.3 |
| 20260504023159 | 66 | 142 | 0.0 | 0.0 | 0.00 | 0.01 | 0.01 | 56 | 1017.3 |
| 20260504022623 | 66 | 142 | 0.0 | 0.0 | 0.00 | 0.01 | 0.01 | 55 | 1017.3 |
| 20260504022157 | 67 | 142 | 0.0 | 0.0 | 0.00 | 0.01 | 0.01 | 54 | 1017.3 |
| 20260504021702 | 67 | 142 | 0.0 | 0.0 | 0.00 | 0.01 | 0.01 | 54 | 1017.2 |
| 20260504021118 | 68 | 142 | 0.0 | 0.0 | 0.00 | 0.01 | 0.01 | 52 | 1017.3 |
| 20260504020646 | 68 | 142 | 0.0 | 0.0 | 0.00 | 0.01 | 0.01 | 51 | 1017.2 |
| 20260504020219 | 69 | 142 | 0.0 | 0.0 | 0.00 | 0.01 | 0.01 | 50 | 1017.2 |
| 20260504015723 | 69 | 142 | 0.0 | 0.0 | 0.00 | 0.01 | 0.01 | 49 | 1017.2 |
| 20260504015139 | 70 | 142 | 0.0 | 0.0 | 0.00 | 0.01 | 0.01 | 47 | 1017.3 |
| 20260504014702 | 70 | 142 | 0.0 | 0.0 | 0.00 | 0.01 | 0.01 | 47 | 1017.1 |
| 20260504014127 | 70 | 142 | 0.0 | 1.0 | 0.00 | 0.01 | 0.01 | 45 | 1016.9 |
| 20260504013700 | 70 | 142 | 0.0 | 2.0 | 0.00 | 0.01 | 0.01 | 45 | 1016.9 |
| 20260504013126 | 71 | 142 | 1.0 | 2.0 | 0.00 | 0.01 | 0.01 | 43 | 1017.0 |
| 20260504012700 | 72 | 142 | 1.0 | 2.0 | 0.00 | 0.01 | 0.01 | 40 | 1016.9 |
| 20260504012145 | 72 | 142 | 1.0 | 2.0 | 0.00 | 0.01 | 0.01 | 39 | 1016.9 |
| 20260504011650 | 73 | 142 | 1.0 | 4.0 | 0.00 | 0.01 | 0.01 | 38 | 1016.9 |
| 20260504011123 | 73 | 148 | 1.0 | 4.0 | 0.00 | 0.01 | 0.01 | 37 | 1016.7 |
| 20260504010649 | 73 | 149 | 2.0 | 5.0 | 0.00 | 0.01 | 0.01 | 37 | 1016.6 |
| 20260504010127 | 73 | 154 | 2.0 | 6.0 | 0.00 | 0.01 | 0.01 | 36 | 1016.6 |
| 20260504005652 | 73 | 161 | 2.0 | 6.0 | 0.00 | 0.01 | 0.01 | 35 | 1016.7 |
| 20260504005125 | 74 | 161 | 2.0 | 10.0 | 0.00 | 0.01 | 0.01 | 35 | 1016.6 |
| 20260504004649 | 74 | 154 | 4.0 | 10.0 | 0.00 | 0.01 | 0.01 | 34 | 1016.5 |
| 20260504004200 | 74 | 175 | 5.0 | 8.0 | 0.00 | 0.01 | 0.01 | 33 | 1016.6 |
| 20260504003728 | 74 | 197 | 4.0 | 9.0 | 0.00 | 0.01 | 0.01 | 33 | 1016.6 |
| 20260504003132 | 75 | 181 | 6.0 | 10.0 | 0.00 | 0.01 | 0.01 | 32 | 1016.7 |
| 20260504002646 | 75 | 171 | 6.0 | 10.0 | 0.00 | 0.01 | 0.01 | 31 | 1016.8 |
| 20260504002212 | 75 | 167 | 3.0 | 12.0 | 0.00 | 0.01 | 0.01 | 32 | 1016.9 |
| 20260504001625 | 75 | 181 | 7.0 | 13.0 | 0.00 | 0.01 | 0.01 | 32 | 1017.0 |
| 20260504001148 | 75 | 165 | 8.0 | 13.0 | 0.00 | 0.01 | 0.01 | 31 | 1017.0 |
| 20260504000618 | 76 | 194 | 6.0 | 10.0 | 0.00 | 0.01 | 0.01 | 33 | 1016.9 |
| 20260504000151 | 76 | 162 | 6.0 | 10.0 | 0.00 | 0.01 | 0.01 | 32 | 1017.1 |
| 20260503235655 | 76 | 186 | 6.0 | 10.0 | 0.00 | 0.01 | 0.01 | 32 | 1017.0 |
| 20260503235128 | 76 | 172 | 5.0 | 11.0 | 0.00 | 0.01 | 0.01 | 32 | 1017.1 |
| 20260503234634 | 76 | 177 | 6.0 | 11.0 | 0.00 | 0.01 | 0.01 | 30 | 1017.1 |
| 20260503234206 | 76 | 180 | 5.0 | 11.0 | 0.00 | 0.01 | 0.01 | 32 | 1017.2 |
| 20260503233628 | 76 | 173 | 7.0 | 11.0 | 0.00 | 0.01 | 0.01 | 31 | 1017.1 |
| 20260503233201 | 76 | 162 | 6.0 | 11.0 | 0.00 | 0.01 | 0.01 | 31 | 1017.1 |
| 20260503232727 | 76 | 173 | 6.0 | 11.0 | 0.00 | 0.01 | 0.01 | 32 | 1017.2 |
| 20260503232137 | 77 | 154 | 7.0 | 11.0 | 0.00 | 0.01 | 0.01 | 32 | 1017.2 |
| 20260503231702 | 77 | 232 | 5.0 | 11.0 | 0.00 | 0.01 | 0.01 | 33 | 1017.2 |
| 20260503231138 | 77 | 174 | 5.0 | 14.0 | 0.00 | 0.01 | 0.01 | 34 | 1017.1 |
| 20260503230704 | 77 | 211 | 5.0 | 14.0 | 0.00 | 0.01 | 0.01 | 35 | 1017.1 |
| 20260503230208 | 77 | 177 | 7.0 | 14.0 | 0.00 | 0.01 | 0.01 | 34 | 1017.3 |
| 20260503225620 | 77 | 219 | 7.0 | 14.0 | 0.00 | 0.01 | 0.01 | 32 | 1017.3 |
| 20260503225145 | 77 | 190 | 6.0 | 11.0 | 0.00 | 0.01 | 0.01 | 32 | 1017.3 |
| 20260503224658 | 77 | 180 | 7.0 | 12.0 | 0.00 | 0.01 | 0.01 | 34 | 1017.2 |
| 20260503224123 | 77 | 157 | 8.0 | 12.0 | 0.00 | 0.01 | 0.01 | 32 | 1017.2 |
| 20260503223657 | 77 | 115 | 4.0 | 12.0 | 0.00 | 0.01 | 0.01 | 35 | 1017.2 |
| 20260503223119 | 77 | 127 | 6.0 | 12.0 | 0.00 | 0.01 | 0.01 | 33 | 1017.3 |
| 20260503222653 | 78 | 165 | 7.0 | 11.0 | 0.00 | 0.01 | 0.01 | 33 | 1017.4 |
| 20260503222122 | 78 | 202 | 7.0 | 13.0 | 0.00 | 0.01 | 0.01 | 33 | 1017.5 |
| 20260503221655 | 77 | 156 | 3.0 | 8.0 | 0.00 | 0.01 | 0.01 | 35 | 1017.6 |
| 20260503221118 | 77 | 188 | 4.0 | 11.0 | 0.00 | 0.01 | 0.01 | 35 | 1017.6 |
| 20260503220644 | 77 | 134 | 5.0 | 11.0 | 0.00 | 0.01 | 0.01 | 32 | 1017.7 |
| 20260503220155 | 77 | 179 | 6.0 | 12.0 | 0.00 | 0.01 | 0.01 | 31 | 1017.8 |
| 20260503215720 | 77 | 180 | 7.0 | 12.0 | 0.00 | 0.01 | 0.01 | 32 | 1018.0 |
| 20260503215132 | 77 | 223 | 5.0 | 11.0 | 0.00 | 0.01 | 0.01 | 34 | 1018.0 |
| 20260503214657 | 77 | 155 | 6.0 | 12.0 | 0.00 | 0.01 | 0.01 | 31 | 1018.2 |
| 20260503214125 | 78 | 224 | 8.0 | 12.0 | 0.00 | 0.01 | 0.01 | 30 | 1018.3 |
| 20260503213631 | 77 | 153 | 7.0 | 10.0 | 0.00 | 0.01 | 0.01 | 30 | 1018.4 |
| 20260503213114 | 77 | 135 | 4.0 | 12.0 | 0.00 | 0.01 | 0.01 | 34 | 1018.4 |
| 20260503212642 | 77 | 148 | 7.0 | 14.0 | 0.00 | 0.01 | 0.01 | 33 | 1018.5 |
| 20260503212208 | 77 | 134 | 7.0 | 14.0 | 0.00 | 0.01 | 0.01 | 34 | 1018.5 |
| 20260503211644 | 77 | 138 | 8.0 | 11.0 | 0.00 | 0.01 | 0.01 | 33 | 1018.5 |
| 20260503211212 | 77 | 141 | 4.0 | 13.0 | 0.00 | 0.01 | 0.01 | 34 | 1018.6 |
| 20260503210643 | 77 | 105 | 6.0 | 15.0 | 0.00 | 0.01 | 0.01 | 35 | 1018.8 |
| 20260503210144 | 77 | 157 | 9.0 | 15.0 | 0.00 | 0.01 | 0.01 | 32 | 1018.9 |
| 20260503205657 | 77 | 139 | 6.0 | 12.0 | 0.00 | 0.01 | 0.01 | 35 | 1019.0 |
| 20260503205122 | 77 | 124 | 7.0 | 12.0 | 0.00 | 0.01 | 0.01 | 33 | 1019.1 |
| 20260503204657 | 77 | 150 | 6.0 | 13.0 | 0.00 | 0.01 | 0.01 | 32 | 1019.3 |
| 20260503204121 | 77 | 193 | 6.0 | 13.0 | 0.00 | 0.01 | 0.01 | 34 | 1019.4 |
| 20260503203648 | 77 | 134 | 8.0 | 13.0 | 0.00 | 0.01 | 0.01 | 32 | 1019.4 |
| 20260503203221 | 77 | 169 | 3.0 | 12.0 | 0.00 | 0.01 | 0.01 | 35 | 1019.5 |
| 20260503202725 | 77 | 151 | 6.0 | 12.0 | 0.00 | 0.01 | 0.01 | 32 | 1019.6 |
| 20260503202137 | 77 | 213 | 4.0 | 13.0 | 0.00 | 0.01 | 0.01 | 30 | 1019.7 |
| 20260503201642 | 77 | 214 | 7.0 | 13.0 | 0.00 | 0.01 | 0.01 | 34 | 1019.8 |
| 20260503201155 | 77 | 192 | 5.0 | 13.0 | 0.00 | 0.01 | 0.01 | 33 | 1019.9 |
| 20260503200721 | 77 | 210 | 6.0 | 9.0 | 0.00 | 0.01 | 0.01 | 38 | 1019.9 |
| 20260503200134 | 77 | 177 | 5.0 | 11.0 | 0.00 | 0.01 | 0.01 | 33 | 1020.1 |
| 20260503195659 | 77 | 169 | 7.0 | 11.0 | 0.00 | 0.01 | 0.01 | 33 | 1020.1 |
| 20260503195133 | 76 | 198 | 5.0 | 11.0 | 0.00 | 0.01 | 0.01 | 36 | 1020.2 |
| 20260503194656 | 76 | 173 | 5.0 | 12.0 | 0.00 | 0.01 | 0.01 | 35 | 1020.3 |
| 20260503194209 | 76 | 153 | 7.0 | 12.0 | 0.00 | 0.01 | 0.01 | 34 | 1020.4 |
| 20260503193635 | 76 | 169 | 6.0 | 13.0 | 0.00 | 0.01 | 0.01 | 35 | 1020.4 |
| 20260503193118 | 75 | 144 | 2.0 | 13.0 | 0.00 | 0.01 | 0.01 | 37 | 1020.4 |
| 20260503192628 | 75 | 142 | 7.0 | 12.0 | 0.00 | 0.01 | 0.01 | 36 | 1020.5 |
| 20260503192153 | 75 | 169 | 6.0 | 12.0 | 0.00 | 0.01 | 0.01 | 37 | 1020.6 |
| 20260503191727 | 75 | 132 | 5.0 | 13.0 | 0.00 | 0.01 | 0.01 | 34 | 1020.7 |
| 20260503191130 | 75 | 124 | 8.0 | 15.0 | 0.00 | 0.01 | 0.01 | 36 | 1020.8 |
| 20260503190635 | 75 | 163 | 6.0 | 15.0 | 0.00 | 0.01 | 0.01 | 37 | 1020.8 |
| 20260503190206 | 75 | 147 | 5.0 | 10.0 | 0.00 | 0.01 | 0.01 | 34 | 1020.8 |
| 20260503185635 | 75 | 147 | 7.0 | 14.0 | 0.00 | 0.01 | 0.01 | 33 | 1021.0 |
| 20260503185207 | 75 | 167 | 9.0 | 14.0 | 0.00 | 0.01 | 0.01 | 34 | 1021.1 |
| 20260503184633 | 75 | 134 | 9.0 | 14.0 | 0.00 | 0.01 | 0.01 | 33 | 1021.1 |
| 20260503183640 | 75 | 178 | 7.0 | 16.0 | 0.00 | 0.01 | 0.01 | 35 | 1021.3 |
| 20260503183145 | 75 | 134 | 7.0 | 16.0 | 0.00 | 0.01 | 0.01 | 32 | 1021.4 |
| 20260503182716 | 75 | 184 | 6.0 | 14.0 | 0.00 | 0.01 | 0.01 | 34 | 1021.5 |
| 20260503182215 | 75 | 198 | 5.0 | 12.0 | 0.00 | 0.01 | 0.01 | 36 | 1021.6 |
| 20260503181619 | 75 | 218 | 8.0 | 14.0 | 0.00 | 0.01 | 0.01 | 33 | 1021.6 |
| 20260503181151 | 75 | 174 | 6.0 | 11.0 | 0.00 | 0.01 | 0.01 | 36 | 1021.7 |
| 20260503180622 | 75 | 178 | 5.0 | 12.0 | 0.00 | 0.01 | 0.01 | 36 | 1021.8 |
| 20260503180155 | 75 | 140 | 8.0 | 15.0 | 0.00 | 0.01 | 0.01 | 34 | 1021.9 |
| 20260503175659 | 74 | 207 | 8.0 | 16.0 | 0.00 | 0.01 | 0.01 | 34 | 1022.0 |
| 20260503175211 | 75 | 178 | 10.0 | 16.0 | 0.00 | 0.01 | 0.01 | 34 | 1022.2 |
| 20260503174614 | 74 | 192 | 4.0 | 14.0 | 0.00 | 0.01 | 0.01 | 34 | 1022.2 |
| 20260503174148 | 74 | 173 | 7.0 | 14.0 | 0.00 | 0.01 | 0.01 | 34 | 1022.4 |
| 20260503173613 | 74 | 150 | 8.0 | 15.0 | 0.00 | 0.01 | 0.01 | 35 | 1022.5 |
| 20260503173125 | 74 | 202 | 9.0 | 16.0 | 0.00 | 0.01 | 0.01 | 35 | 1022.7 |
| 20260503172650 | 74 | 175 | 8.0 | 14.0 | 0.00 | 0.01 | 0.01 | 36 | 1022.6 |
| 20260503172226 | 74 | 210 | 7.0 | 12.0 | 0.00 | 0.01 | 0.01 | 38 | 1022.6 |
| 20260503171628 | 74 | 172 | 8.0 | 12.0 | 0.00 | 0.01 | 0.01 | 39 | 1022.8 |
| 20260503171151 | 74 | 184 | 6.0 | 14.0 | 0.00 | 0.01 | 0.01 | 42 | 1022.7 |
| 20260503170704 | 74 | 182 | 7.0 | 14.0 | 0.00 | 0.01 | 0.01 | 41 | 1022.8 |
| 20260503170133 | 74 | 186 | 6.0 | 13.0 | 0.00 | 0.01 | 0.01 | 40 | 1022.8 |
| 20260503160203 | 72 | 198 | 7.0 | 11.0 | 0.00 | 0.01 | 0.01 | 47 | 1023.5 |
| 20260503150655 | 63 | 186 | 1.0 | 3.0 | 0.00 | 0.01 | 0.01 | 76 | 1023.6 |
| 20260503150128 | 62 | 258 | 1.0 | 4.0 | 0.00 | 0.01 | 0.01 | 81 | 1023.7 |
| 20260503140114 | 54 | 350 | 1.0 | 2.0 | 0.00 | 0.01 | 0.01 | 94 | 1023.7 |
| 20260503131221 | 50 | 325 | 0.0 | 4.0 | 0.00 | 0.01 | 0.01 | 93 | 1023.3 |
| 20260503130823 | 50 | 310 | 1.0 | 4.0 | 0.00 | 0.01 | 0.01 | 93 | 1023.3 |
| 20260503130141 | 49 | 319 | 1.0 | 3.0 | 0.00 | 0.01 | 0.01 | 93 | 1023.3 |
| 20260503120144 | 47 | 319 | 0.0 | 0.0 | 0.01 | 0.01 | 0.01 | 90 | 1022.7 |
| 20260503110646 | 47 | 319 | 0.0 | 0.0 | 0.00 | 0.00 | 0.00 | 90 | 1022.6 |
| 20260503110220 | 48 | 319 | 0.0 | 0.0 | 0.00 | 0.00 | 0.00 | 90 | 1022.5 |
| 20260503100158 | 48 | 291 | 1.0 | 2.0 | 0.00 | 0.00 | 0.00 | 89 | 1022.3 |
| 20260503090153 | 49 | 341 | 0.0 | 2.0 | 0.00 | 0.00 | 0.00 | 89 | 1021.8 |
| 20260503081121 | 50 | 341 | 0.0 | 1.0 | 0.00 | 0.00 | 0.00 | 88 | 1022.0 |
| 20260503080654 | 50 | 341 | 0.0 | 0.0 | 0.00 | 0.00 | 0.00 | 88 | 1021.9 |
| 20260503080119 | 50 | 341 | 0.0 | 0.0 | 0.00 | 0.00 | 0.00 | 88 | 1022.0 |
| 20260503072644 | 51 | 341 | 0.0 | 1.0 | 0.00 | 0.00 | 0.00 | 87 | 1022.3 |
| 20260503072118 | 51 | 341 | 0.0 | 2.0 | 0.00 | 0.00 | 0.00 | 87 | 1022.4 |
| 20260503071644 | 51 | 341 | 1.0 | 2.0 | 0.00 | 0.00 | 0.00 | 87 | 1022.4 |
| 20260503071121 | 51 | 341 | 1.0 | 2.0 | 0.00 | 0.00 | 0.00 | 87 | 1022.5 |
| 20260503070648 | 51 | 341 | 0.0 | 1.0 | 0.00 | 0.00 | 0.00 | 87 | 1022.6 |
| 20260503070115 | 51 | 341 | 0.0 | 1.0 | 0.00 | 0.00 | 0.00 | 86 | 1022.6 |
| 20260503060122 | 53 | 341 | 0.0 | 0.0 | 0.00 | 0.00 | 0.00 | 84 | 1022.6 |